TimeEDT,TemperatureF,Dew PointF,Humidity,Sea Level PressureIn,VisibilityMPH,Wind Direction,Wind SpeedMPH,Gust SpeedMPH,PrecipitationIn,Events,Conditions,WindDirDegrees,DateUTC
12:15 AM,28.4,17.6,64,29.69,10.0,SW,9.2,-,N/A,,Clear,230,2013-03-21 04:15:00
12:35 AM,28.4,15.8,59,29.69,10.0,SW,10.4,-,N/A,,Clear,220,2013-03-21 04:35:00
12:55 AM,28.4,15.8,59,29.69,10.0,SW,10.4,-,N/A,,Clear,220,2013-03-21 04:55:00
1:15 AM,26.6,15.8,64,29.70,10.0,SW,9.2,-,N/A,,Clear,220,2013-03-21 05:15:00
1:35 AM,26.6,17.6,69,29.70,10.0,SSW,12.7,-,N/A,,Clear,210,2013-03-21 05:35:00
2:15 AM,26.6,17.6,69,29.71,10.0,SW,8.1,-,N/A,,Clear,220,2013-03-21 06:15:00
2:35 AM,26.6,15.8,64,29.70,10.0,SW,6.9,-,N/A,,Clear,220,2013-03-21 06:35:00
2:55 AM,26.6,15.8,64,29.70,10.0,SW,10.4,-,N/A,,Clear,220,2013-03-21 06:55:00
3:15 AM,26.6,15.8,64,29.70,10.0,SW,9.2,-,N/A,,Clear,220,2013-03-21 07:15:00
3:35 AM,26.6,15.8,64,29.70,10.0,SSW,9.2,-,N/A,,Clear,210,2013-03-21 07:35:00
3:55 AM,24.8,15.8,69,29.70,10.0,SSW,9.2,-,N/A,,Clear,200,2013-03-21 07:55:00
4:15 AM,24.8,15.8,69,29.70,10.0,South,8.1,-,N/A,,Clear,190,2013-03-21 08:15:00
4:35 AM,24.8,15.8,69,29.71,10.0,SW,4.6,-,N/A,,Clear,220,2013-03-21 08:35:00
4:55 AM,24.8,14.0,64,29.71,10.0,SW,9.2,-,N/A,,Clear,220,2013-03-21 08:55:00
5:15 AM,24.8,14.0,64,29.71,10.0,South,5.8,-,N/A,,Clear,180,2013-03-21 09:15:00
5:35 AM,23.0,14.0,68,29.71,10.0,SW,8.1,-,N/A,,Clear,220,2013-03-21 09:35:00
5:55 AM,24.8,15.8,69,29.71,10.0,SW,6.9,-,N/A,,Clear,230,2013-03-21 09:55:00
6:15 AM,23.0,12.2,63,29.72,10.0,WSW,4.6,-,N/A,,Clear,240,2013-03-21 10:15:00
6:35 AM,23.0,14.0,68,29.72,10.0,SW,3.5,-,N/A,,Clear,230,2013-03-21 10:35:00
6:55 AM,23.0,14.0,68,29.73,10.0,Calm,Calm,-,N/A,,Clear,0,2013-03-21 10:55:00
7:15 AM,23.0,14.0,68,29.74,10.0,South,3.5,-,N/A,,Clear,180,2013-03-21 11:15:00
7:35 AM,23.0,14.0,68,29.73,10.0,Calm,Calm,-,N/A,,Clear,0,2013-03-21 11:35:00
7:55 AM,24.8,15.8,69,29.73,10.0,Calm,Calm,-,N/A,,Clear,0,2013-03-21 11:55:00
8:15 AM,24.8,12.2,59,29.73,10.0,SW,5.8,-,N/A,,Clear,230,2013-03-21 12:15:00
8:55 AM,26.6,14.0,59,29.74,10.0,SW,6.9,-,N/A,,Clear,230,2013-03-21 12:55:00
9:15 AM,28.4,14.0,55,29.74,10.0,SW,8.1,-,N/A,,Clear,220,2013-03-21 13:15:00
9:35 AM,28.4,14.0,55,29.74,10.0,WSW,8.1,-,N/A,,Clear,240,2013-03-21 13:35:00
9:55 AM,30.2,12.2,47,29.73,10.0,Calm,Calm,-,N/A,,Clear,0,2013-03-21 13:55:00
10:15 AM,32.0,12.2,44,29.73,10.0,Calm,Calm,-,N/A,,Clear,0,2013-03-21 14:15:00
10:35 AM,32.0,12.2,44,29.73,10.0,Calm,Calm,-,N/A,,Clear,0,2013-03-21 14:35:00
10:55 AM,33.8,10.4,38,29.72,10.0,West,4.6,-,N/A,,Partly Cloudy,270,2013-03-21 14:55:00
11:15 AM,33.8,8.6,35,29.72,10.0,WNW,9.2,-,N/A,,Clear,300,2013-03-21 15:15:00
11:35 AM,33.8,8.6,35,29.71,10.0,West,5.8,-,N/A,,Clear,280,2013-03-21 15:35:00
11:55 AM,33.8,10.4,38,29.71,10.0,SW,9.2,-,N/A,,Clear,230,2013-03-21 15:55:00
12:35 PM,35.6,10.4,35,29.69,10.0,Calm,Calm,-,N/A,,Clear,0,2013-03-21 16:35:00
3:55 PM,39.2,6.8,26,29.62,10.0,Calm,Calm,-,N/A,,Clear,0,2013-03-21 19:55:00
4:15 PM,37.4,8.6,30,29.61,10.0,SSE,8.1,-,N/A,,Clear,160,2013-03-21 20:15:00
4:35 PM,37.4,10.4,33,29.61,10.0,South,3.5,-,N/A,,Clear,170,2013-03-21 20:35:00
4:55 PM,37.4,14.0,38,29.60,10.0,SE,6.9,-,N/A,,Clear,130,2013-03-21 20:55:00
5:15 PM,37.4,12.2,36,29.60,10.0,SSE,5.8,-,N/A,,Clear,150,2013-03-21 21:15:00
5:35 PM,37.4,14.0,38,29.60,10.0,SSE,6.9,-,N/A,,Clear,160,2013-03-21 21:35:00
5:55 PM,37.4,14.0,38,29.60,10.0,SE,6.9,-,N/A,,Clear,140,2013-03-21 21:55:00
6:15 PM,35.6,15.8,44,29.61,10.0,SE,8.1,-,N/A,,Clear,140,2013-03-21 22:15:00
6:35 PM,35.6,15.8,44,29.61,10.0,SSE,4.6,-,N/A,,Clear,160,2013-03-21 22:35:00
6:55 PM,33.8,15.8,48,29.61,10.0,South,4.6,-,N/A,,Clear,170,2013-03-21 22:55:00
7:15 PM,33.8,15.8,48,29.62,10.0,SSE,5.8,-,N/A,,Clear,160,2013-03-21 23:15:00
7:35 PM,30.2,17.6,60,29.63,10.0,South,4.6,-,N/A,,Clear,180,2013-03-21 23:35:00
7:55 PM,30.2,17.6,60,29.61,10.0,SSE,4.6,-,N/A,,Clear,150,2013-03-21 23:55:00
8:15 PM,30.2,17.6,60,29.62,10.0,South,4.6,-,N/A,,Clear,170,2013-03-22 00:15:00
8:35 PM,28.4,17.6,64,29.62,10.0,Calm,Calm,-,N/A,,Clear,0,2013-03-22 00:35:00
8:55 PM,28.4,17.6,64,29.61,10.0,SSW,3.5,-,N/A,,Clear,210,2013-03-22 00:55:00
9:15 PM,26.6,19.4,74,29.62,10.0,Calm,Calm,-,N/A,,Clear,0,2013-03-22 01:15:00
9:35 PM,26.6,19.4,74,29.62,10.0,Calm,Calm,-,N/A,,Clear,0,2013-03-22 01:35:00
9:55 PM,24.8,17.6,74,29.61,10.0,Calm,Calm,-,N/A,,Partly Cloudy,0,2013-03-22 01:55:00
10:15 PM,24.8,17.6,74,29.60,10.0,Calm,Calm,-,N/A,,Partly Cloudy,0,2013-03-22 02:15:00
10:35 PM,24.8,17.6,74,29.60,10.0,Calm,Calm,-,N/A,,Partly Cloudy,0,2013-03-22 02:35:00
10:55 PM,26.6,19.4,74,29.60,10.0,NNE,3.5,-,N/A,,Clear,20,2013-03-22 02:55:00
11:15 PM,24.8,17.6,74,29.60,10.0,North,3.5,-,N/A,,Clear,360,2013-03-22 03:15:00
11:35 PM,21.2,17.6,86,29.60,10.0,Calm,Calm,-,N/A,,Clear,0,2013-03-22 03:35:00
11:55 PM,21.2,15.8,80,29.59,10.0,Calm,Calm,-,N/A,,Clear,0,2013-03-22 03:55:00